VE3EP-1 Weather Reports


Display with metric or nautical units.
time (UTC)temp
F
wind
direction
speed
MPH
gust
MPH
rain 1hr
in
rain 24hr
in
rain mn
in
humidity
%
barometer
mb
20260510094208 45 355 1.0 3.0 0.00 0.19 0.00 84 1012.0
20260510093209 45 344 0.0 3.0 0.00 0.19 0.00 86 1011.8
20260510092208 45 3 1.0 3.0 0.00 0.19 0.00 86 1011.6
20260510091208 45 332 0.0 2.0 0.00 0.19 0.00 88 1011.5
20260510090212 45 335 0.0 3.0 0.00 0.19 0.00 89 1011.6
20260510084208 45 272 0.0 2.0 0.00 0.19 0.00 92 1011.3
20260510083209 44 273 0.0 1.0 0.00 0.19 0.00 93 1011.2
20260510082208 45 269 0.0 1.0 0.00 0.19 0.00 94 1011.0
20260510081209 45 266 0.0 1.0 0.00 0.19 0.00 95 1010.8
20260510080213 45 266 0.0 1.0 0.00 0.19 0.00 95 1010.7
20260510075208 44 269 0.0 1.0 0.00 0.19 0.00 95 1010.8
20260510074208 44 295 0.0 1.0 0.00 0.19 0.00 95 1010.6
20260510073209 44 357 0.0 1.0 0.00 0.19 0.00 95 1010.3
20260510072209 45 0 0.0 0.0 0.00 0.19 0.00 96 1010.4
20260510071210 44 0 0.0 0.0 0.00 0.19 0.00 95 1010.2
20260510065208 44 335 0.0 2.0 0.00 0.19 0.00 95 1010.6
20260510064208 44 334 0.0 2.0 0.00 0.19 0.00 95 1010.3
20260510063209 44 357 0.0 1.0 0.00 0.19 0.00 95 1010.1
20260510062209 44 328 0.0 2.0 0.00 0.19 0.00 95 1009.8
20260510055208 45 295 0.0 1.0 0.00 0.19 0.00 94 1009.8
20260510054208 45 330 0.0 2.0 0.00 0.19 0.00 94 1009.9
20260510051209 45 261 1.0 2.0 0.00 0.19 0.00 94 1009.1
20260510045208 46 264 1.0 3.0 0.00 0.19 0.00 94 1008.9
20260510043209 46 326 0.0 2.0 0.00 0.19 0.00 95 1009.0
20260510042209 46 281 0.0 2.0 0.00 0.19 0.00 95 1008.6
20260510040208 46 334 0.0 1.0 0.00 0.19 0.00 95 1008.7
20260510035212 46 323 0.0 2.0 0.00 0.19 0.19 95 1008.6
20260510033208 47 13 1.0 4.0 0.00 0.19 0.19 94 1008.4
20260510032208 47 22 1.0 3.0 0.00 0.19 0.19 95 1008.2
20260510030208 47 13 0.0 2.0 0.00 0.19 0.19 94 1007.9
20260510024208 48 358 1.0 4.0 0.00 0.19 0.19 93 1008.2
20260510023208 48 350 1.0 6.0 0.00 0.19 0.19 93 1008.2
20260510022208 49 2 2.0 6.0 0.00 0.19 0.19 92 1008.2
20260510020209 49 2 1.0 4.0 0.00 0.19 0.19 92 1007.6
20260510015208 50 323 1.0 4.0 0.02 0.19 0.19 91 1007.6
20260510014208 50 283 1.0 4.0 0.06 0.19 0.19 92 1007.4
20260510013209 51 279 1.0 3.0 0.11 0.19 0.19 91 1007.2
20260510012208 51 268 2.0 9.0 0.19 0.19 0.19 91 1007.0
20260510011208 50 266 1.0 4.0 0.19 0.19 0.19 92 1007.2
20260510010208 50 286 2.0 7.0 0.19 0.19 0.19 92 1007.3
20260510005207 50 256 2.0 4.0 0.17 0.17 0.17 93 1007.0
20260510004208 49 360 1.0 6.0 0.13 0.13 0.13 92 1007.0
20260510002209 54 232 3.0 6.0 0.00 0.00 0.00 76 1006.0
20260510000208 56 225 3.0 7.0 0.00 0.00 0.00 71 1005.1
20260509234208 57 206 3.0 6.0 0.00 0.00 0.00 72 1005.0
20260509233208 57 209 3.0 6.0 0.00 0.00 0.00 71 1004.8
20260509232208 57 214 3.0 4.0 0.00 0.00 0.00 70 1005.2
20260509231208 57 205 3.0 7.0 0.00 0.00 0.00 71 1005.2
20260509225208 58 206 2.0 3.0 0.00 0.00 0.00 70 1006.0
20260509224208 58 210 2.0 4.0 0.00 0.00 0.00 70 1005.9
20260509222208 58 205 3.0 4.0 0.00 0.00 0.00 71 1006.0
20260509221208 58 210 3.0 8.0 0.00 0.00 0.00 70 1006.0
20260509215208 59 210 3.0 6.0 0.00 0.00 0.00 68 1006.0
20260509214208 59 205 3.0 6.0 0.00 0.00 0.00 68 1006.0
20260509213208 59 212 4.0 6.0 0.00 0.00 0.00 67 1006.2
20260509211208 60 212 4.0 8.0 0.00 0.00 0.00 65 1006.2
20260509210208 60 205 4.0 8.0 0.00 0.00 0.00 65 1005.8
20260509205208 61 210 5.0 11.0 0.00 0.00 0.00 64 1006.1
20260509203208 62 206 4.0 8.0 0.00 0.00 0.00 62 1006.3
20260509202208 62 210 5.0 10.0 0.00 0.00 0.00 61 1006.3
20260509201208 62 203 5.0 10.0 0.00 0.00 0.00 61 1006.6
20260509200208 62 214 5.0 10.0 0.00 0.00 0.00 62 1006.8
20260509195208 62 217 4.0 8.0 0.00 0.00 0.00 61 1007.1
20260509194208 62 219 4.0 8.0 0.00 0.00 0.00 62 1007.3
20260509193208 61 222 5.0 9.0 0.00 0.00 0.00 63 1007.1
20260509191208 61 203 5.0 10.0 0.00 0.00 0.00 56 1007.4
20260509185208 61 208 5.0 11.0 0.00 0.00 0.00 61 1007.9
20260509184207 61 214 5.0 11.0 0.00 0.00 0.00 63 1007.8
20260509181207 61 221 5.0 9.0 0.00 0.00 0.00 60 1008.4
20260509180208 60 230 5.0 9.0 0.00 0.00 0.00 63 1008.4
20260509173208 60 215 4.0 8.0 0.00 0.00 0.00 63 1008.8
20260509170208 59 234 4.0 8.0 0.00 0.00 0.00 62 1008.9
20260509164209 59 222 3.0 7.0 0.00 0.00 0.00 62 1008.9
20260509162209 58 246 3.0 7.0 0.00 0.00 0.00 63 1009.4
20260509160208 58 222 2.0 6.0 0.00 0.00 0.00 64 1009.8
20260509155208 57 212 2.0 6.0 0.00 0.00 0.00 65 1009.7
20260509153209 56 216 3.0 6.0 0.00 0.00 0.00 63 1010.1
20260509152208 56 216 3.0 7.0 0.00 0.00 0.00 64 1010.0
20260509150208 54 212 3.0 6.0 0.00 0.00 0.00 64 1010.3
20260509143208 52 211 5.0 9.0 0.00 0.00 0.00 67 1010.5
20260509141208 51 209 4.0 8.0 0.00 0.00 0.00 69 1010.7
20260509140209 50 207 4.0 8.0 0.00 0.00 0.00 68 1010.8
20260509135208 50 214 4.0 7.0 0.00 0.00 0.00 68 1010.9
20260509133208 49 214 4.0 9.0 0.00 0.00 0.00 69 1011.0
20260509132208 49 212 5.0 10.0 0.00 0.00 0.00 68 1011.0
20260509130209 48 211 4.0 8.0 0.00 0.00 0.00 69 1010.8
20260509123209 49 206 4.0 7.0 0.00 0.00 0.00 66 1011.4
20260509122208 48 206 4.0 7.0 0.00 0.00 0.00 68 1011.4
20260509120209 47 208 5.0 9.0 0.00 0.00 0.00 68 1011.2
20260509112208 47 209 4.0 7.0 0.00 0.00 0.00 67 1011.6
20260509105208 44 208 3.0 6.0 0.00 0.00 0.00 70 1011.4
20260509103208 43 204 4.0 6.0 0.00 0.00 0.00 74 1011.2
20260509102208 42 206 4.0 7.0 0.00 0.00 0.00 74 1011.3
20260509100208 42 206 3.0 6.0 0.00 0.00 0.00 74 1011.2
20260509095208 43 207 4.0 6.0 0.00 0.00 0.00 73 1011.0